Montevideo, MN

7:53 PM CST on December 14, 2017 (GMT -0600)
Montevideo-Chippewa County

Weather History for KMVE - July, 2013

Change the Weather History Date:

Monday, July 22, 2013

  Actual Average Record
Temperature  
Mean Temperature 69 °F -  
Max Temperature 78 °F 84 °F 96 °F (1976)
Min Temperature 60 °F 60 °F 48 °F (1985)
Cooling Degree Days 4    
Growing Degree Days 19 (Base 50)    
Moisture  
Dew Point 64 °F    
Average Humidity 77    
Maximum Humidity 100    
Minimum Humidity 57    
Precipitation  
Precipitation 0.00 in - - ()
Sea Level Pressure  
Sea Level Pressure 29.78 in    
Wind  
Wind Speed 9 mph (NNW)    
Max Wind Speed 18 mph    
Max Gust Speed 25 mph    
Visibility 10 miles    
Events Rain , Thunderstorm    
Averages and records for this station are not official NWS values.
T = Trace of Precipitation, MM = Missing Value Source: NWS Daily Summary

Daily Weather History Graph

Daily Weather History Graph

Search for Another Location

Airport or City:

Trip Planner

Search our weather history database for the weather conditions in past years. The results will help you decide how hot, cold, wet, or windy it might be!

Date:

Astronomy

Jul. 22, 2013 Rise Set
Actual Time 5:57 AM CDT 9:00 PM CDT
Civil Twilight 5:22 AM CDT 9:35 PM CDT
Nautical Twilight 4:37 AM CDT 10:19 PM CDT
Astronomical Twilight 3:43 AM CDT 11:13 PM CDT
Moon 8:42 PM CDT (7/22) 5:58 AM CDT (7/22)
Length of Visible Light 16h 12m
Length of Day
15h 02m
Full, 100% of the Moon is Illuminated
Jul 22
Full
Jul 22
Full
Jul 29
Last Quarter
Aug 6
New
Aug 14
First Quarter

Hourly Weather History & Observations

Time (CDT) Temp. Dew Point Humidity Pressure Visibility Wind Dir Wind Speed Gust Speed Precip Events Conditions
12:14 AM 71.6 °F 66.2 °F 83% 29.75 in 10.0 mi South 6.9 mph - N/A   Clear
12:34 AM 71.6 °F 66.2 °F 83% 29.74 in 10.0 mi South 6.9 mph - N/A   Clear
12:54 AM 71.6 °F 66.2 °F 83% 29.73 in 10.0 mi South 8.1 mph - N/A   Clear
1:14 AM 71.6 °F 66.2 °F 83% 29.74 in 10.0 mi SSW 8.1 mph - N/A   Clear
1:34 AM 71.6 °F 66.2 °F 83% 29.74 in 10.0 mi SSW 6.9 mph - N/A   Clear
1:54 AM 69.8 °F 66.2 °F 88% 29.73 in 10.0 mi SSW 9.2 mph - N/A   Clear
2:14 AM 71.6 °F 66.2 °F 83% 29.73 in 10.0 mi SW 9.2 mph - N/A   Clear
2:34 AM 71.6 °F 66.2 °F 83% 29.72 in 10.0 mi SW 6.9 mph - N/A   Clear
2:54 AM 69.8 °F 66.2 °F 88% 29.72 in 10.0 mi SSW 5.8 mph - N/A   Clear
3:14 AM 69.8 °F 68.0 °F 94% 29.74 in 10.0 mi SSE 4.6 mph - N/A   Scattered Clouds
3:33 AM 69.8 °F 68.0 °F 94% 29.71 in 10.0 mi South 5.8 mph - N/A   Scattered Clouds
3:54 AM 69.8 °F 68.0 °F 94% 29.71 in 10.0 mi South 5.8 mph - N/A   Clear
4:14 AM 69.8 °F 68.0 °F 94% 29.72 in 10.0 mi SSW 3.5 mph - N/A   Clear
4:33 AM 69.8 °F 68.0 °F 94% 29.72 in 10.0 mi SW 3.5 mph - N/A Rain , Thunderstorm Light Thunderstorms and Rain
4:54 AM 69.8 °F 68.0 °F 94% 29.71 in 10.0 mi SW 9.2 mph - N/A   Scattered Clouds
5:14 AM 69.8 °F 69.8 °F 100% 29.69 in 10.0 mi SSW 8.1 mph - N/A Rain , Thunderstorm Light Thunderstorms and Rain
5:33 AM 69.8 °F 69.8 °F 100% 29.72 in 7.0 mi WSW 10.4 mph - N/A Rain , Thunderstorm Thunderstorms and Rain
5:54 AM 69.8 °F 69.8 °F 100% 29.71 in 7.0 mi WSW 8.1 mph - N/A Rain , Thunderstorm Light Thunderstorms and Rain
6:14 AM 69.8 °F 69.8 °F 100% 29.69 in 10.0 mi SW 8.1 mph - N/A   Mostly Cloudy
6:33 AM 69.8 °F 69.8 °F 100% 29.70 in 10.0 mi WSW 8.1 mph - N/A   Overcast
6:54 AM 69.8 °F 69.8 °F 100% 29.70 in 10.0 mi WSW 9.2 mph - N/A   Mostly Cloudy
7:14 AM 71.6 °F 69.8 °F 94% 29.69 in 10.0 mi SW 9.2 mph - N/A   Scattered Clouds
7:33 AM 71.6 °F 69.8 °F 94% 29.69 in 10.0 mi SW 10.4 mph - N/A   Scattered Clouds
7:54 AM 71.6 °F 69.8 °F 94% 29.70 in 10.0 mi Calm Calm - N/A   Scattered Clouds
8:14 AM 71.6 °F 69.8 °F 94% 29.71 in 10.0 mi West 5.8 mph - N/A   Scattered Clouds
8:33 AM 73.4 °F 69.8 °F 88% 29.71 in 10.0 mi WNW 4.6 mph - N/A   Clear
8:54 AM 73.4 °F 69.8 °F 88% 29.72 in 10.0 mi West 8.1 mph - N/A   Clear
9:14 AM 75.2 °F 69.8 °F 83% 29.72 in 10.0 mi NW 8.1 mph - N/A   Clear
9:33 AM 77.0 °F 69.8 °F 78% 29.72 in 10.0 mi NNW 12.7 mph 17.3 mph N/A   Scattered Clouds
9:54 AM 77.0 °F 71.6 °F 83% 29.73 in 10.0 mi North 12.7 mph - N/A   Mostly Cloudy
10:14 AM 75.2 °F 69.8 °F 83% 29.73 in 10.0 mi North 12.7 mph - N/A   Scattered Clouds
10:33 AM 75.2 °F 66.2 °F 73% 29.73 in 10.0 mi North 12.7 mph - N/A   Clear
10:54 AM 75.2 °F 66.2 °F 73% 29.74 in 10.0 mi North 12.7 mph - N/A   Clear
11:14 AM 77.0 °F 64.4 °F 65% 29.75 in 10.0 mi North 16.1 mph - N/A   Clear
11:33 AM 77.0 °F 66.2 °F 69% 29.75 in 10.0 mi North 15.0 mph 19.6 mph N/A   Clear
11:54 AM 78.8 °F 66.2 °F 65% 29.77 in 10.0 mi North 10.4 mph - N/A   Scattered Clouds
12:14 PM 77.0 °F 66.2 °F 69% 29.78 in 10.0 mi North 12.7 mph - N/A   Scattered Clouds
12:33 PM 77.0 °F 66.2 °F 69% 29.78 in 10.0 mi North 16.1 mph 21.9 mph N/A   Scattered Clouds
12:54 PM 78.8 °F 66.2 °F 65% 29.78 in 10.0 mi North 12.7 mph 23.0 mph N/A   Scattered Clouds
1:14 PM 77.0 °F 64.4 °F 65% 29.79 in 10.0 mi North 17.3 mph 23.0 mph N/A   Scattered Clouds
1:33 PM 77.0 °F 64.4 °F 65% 29.78 in 10.0 mi North 18.4 mph 24.2 mph N/A   Scattered Clouds
1:54 PM 78.8 °F 64.4 °F 61% 29.79 in 10.0 mi North 13.8 mph 20.7 mph N/A   Scattered Clouds
2:14 PM 77.0 °F 62.6 °F 61% 29.79 in 10.0 mi North 16.1 mph 19.6 mph N/A   Scattered Clouds
2:33 PM 75.2 °F 62.6 °F 65% 29.80 in 10.0 mi North 16.1 mph 24.2 mph N/A   Scattered Clouds
2:54 PM 77.0 °F 64.4 °F 65% 29.80 in 10.0 mi North 16.1 mph 21.9 mph N/A   Mostly Cloudy
3:14 PM 77.0 °F 62.6 °F 61% 29.81 in 10.0 mi North 16.1 mph 25.3 mph N/A   Mostly Cloudy
3:34 PM 75.2 °F 62.6 °F 65% 29.81 in 10.0 mi North 13.8 mph 21.9 mph N/A   Mostly Cloudy
3:54 PM 75.2 °F 62.6 °F 65% 29.82 in 10.0 mi North 17.3 mph 21.9 mph N/A   Mostly Cloudy
4:14 PM 75.2 °F 62.6 °F 65% 29.82 in 10.0 mi North 12.7 mph 25.3 mph N/A   Scattered Clouds
4:34 PM 75.2 °F 62.6 °F 65% 29.82 in 10.0 mi North 15.0 mph 25.3 mph N/A   Scattered Clouds
4:54 PM 75.2 °F 62.6 °F 65% 29.82 in 10.0 mi North 15.0 mph - N/A   Scattered Clouds
5:13 PM 75.2 °F 60.8 °F 61% 29.82 in 10.0 mi North 18.4 mph 25.3 mph N/A   Clear
5:34 PM 75.2 °F 60.8 °F 61% 29.83 in 10.0 mi North 17.3 mph 21.9 mph N/A   Scattered Clouds
5:54 PM 75.2 °F 59.0 °F 57% 29.83 in 10.0 mi North 18.4 mph 25.3 mph N/A   Scattered Clouds
6:14 PM 75.2 °F 59.0 °F 57% 29.83 in 10.0 mi North 13.8 mph 23.0 mph N/A   Scattered Clouds
6:33 PM 75.2 °F 59.0 °F 57% 29.83 in 10.0 mi NNE 17.3 mph 24.2 mph N/A   Mostly Cloudy
6:54 PM 73.4 °F 59.0 °F 61% 29.84 in 10.0 mi NNE 16.1 mph 21.9 mph N/A   Overcast
7:14 PM 73.4 °F 57.2 °F 57% 29.84 in 10.0 mi North 16.1 mph - N/A   Scattered Clouds
7:33 PM 71.6 °F 57.2 °F 60% 29.84 in 10.0 mi NNE 15.0 mph 18.4 mph N/A   Scattered Clouds
7:54 PM 71.6 °F 57.2 °F 60% 29.85 in 10.0 mi North 11.5 mph - N/A   Mostly Cloudy
8:14 PM 71.6 °F 57.2 °F 60% 29.86 in 10.0 mi NNE 13.8 mph 17.3 mph N/A   Overcast
8:33 PM 69.8 °F 59.0 °F 68% 29.86 in 10.0 mi NNE 10.4 mph - N/A   Overcast
8:54 PM 69.8 °F 59.0 °F 68% 29.86 in 10.0 mi NNE 9.2 mph - N/A   Mostly Cloudy
9:14 PM 68.0 °F 59.0 °F 73% 29.87 in 10.0 mi NNE 8.1 mph - N/A   Overcast
9:33 PM 66.2 °F 59.0 °F 78% 29.88 in 10.0 mi NNE 5.8 mph - N/A   Scattered Clouds
9:54 PM 64.4 °F 59.0 °F 83% 29.89 in 10.0 mi NNE 5.8 mph - N/A   Clear
10:14 PM 64.4 °F 57.2 °F 77% 29.90 in 10.0 mi NNE 6.9 mph - N/A   Clear
10:33 PM 62.6 °F 57.2 °F 82% 29.91 in 10.0 mi NNE 5.8 mph - N/A   Clear
10:54 PM 62.6 °F 57.2 °F 82% 29.92 in 10.0 mi North 4.6 mph - N/A   Clear
11:14 PM 62.6 °F 57.2 °F 82% 29.93 in 10.0 mi North 3.5 mph - N/A   Clear
11:34 PM 60.8 °F 57.2 °F 88% 29.93 in 10.0 mi North 3.5 mph - N/A   Clear
11:54 PM 60.8 °F 57.2 °F 88% 29.93 in 10.0 mi North 4.6 mph - N/A   Clear